Galliano, LA

3:47 PM CST on February 23, 2017 (GMT -0600)
Galliano

Weather History for KGAO - March, 2013

Change the Weather History Date:

Wednesday, March 6, 2013

  Actual Average (KHUM) Record (KHUM)
Temperature  
Mean Temperature 56 °F -  
Max Temperature 65 °F 68 °F 82 °F (1934)
Min Temperature 46 °F 49 °F 28 °F (2015)
Degree Days  
Heating Degree Days 10    
Growing Degree Days 6 (Base 50)    
Moisture  
Dew Point 35 °F    
Average Humidity 50    
Maximum Humidity 81    
Minimum Humidity 25    
Precipitation  
Precipitation 0.00 in - - ()
Sea Level Pressure  
Sea Level Pressure 30.26 in    
Wind  
Wind Speed 12 mph (NNW)    
Max Wind Speed 18 mph    
Max Gust Speed 24 mph    
Visibility 10 miles    
Events      
Averages and records for this station are not official NWS values.
T = Trace of Precipitation, MM = Missing Value Source: NWS Daily Summary

Daily Weather History Graph

Daily Weather History Graph

Search for Another Location

Airport or City:

Trip Planner

Search our weather history database for the weather conditions in past years. The results will help you decide how hot, cold, wet, or windy it might be!

Date:

Astronomy

Mar. 06, 2013 Rise Set
Actual Time 6:20 AM CST 6:03 PM CST
Civil Twilight 5:57 AM CST 6:27 PM CST
Nautical Twilight 5:29 AM CST 6:55 PM CST
Astronomical Twilight 5:01 AM CST 7:22 PM CST
Moon 2:11 AM CST (3/6) 1:04 PM CST (3/6)
Length of Visible Light 12h 30m
Length of Day
11h 43m
Waning Crescent, 29% of the Moon is Illuminated
Mar 6
Waning Crescent
Mar 11
New
Mar 19
First Quarter
Mar 27
Full
Apr 2
Last Quarter

Hourly Weather History & Observations

Time (CST) Temp. Windchill Dew Point Humidity Pressure Visibility Wind Dir Wind Speed Gust Speed Precip Events Conditions
12:15 AM 56.3 °F - 41.5 °F 58% 30.19 in 10.0 mi NNW 12.7 mph 18.4 mph N/A   Unknown
12:35 AM 56.3 °F - 40.1 °F 55% 30.19 in 10.0 mi NNW 13.8 mph - N/A   Unknown
12:55 AM 55.9 °F - 40.8 °F 57% 30.20 in 10.0 mi NNW 15.0 mph - N/A   Unknown
1:15 AM 54.9 °F - 41.7 °F 61% 30.20 in 10.0 mi NNW 15.0 mph - N/A   Unknown
1:35 AM 53.2 °F - 41.9 °F 65% 30.20 in 10.0 mi NW 15.0 mph - N/A   Unknown
1:55 AM 52.7 °F - 40.6 °F 64% 30.21 in 10.0 mi NW 15.0 mph - N/A   Unknown
2:15 AM 52.7 °F - 39.7 °F 61% 30.21 in 10.0 mi NW 13.8 mph - N/A   Unknown
2:35 AM 51.6 °F - 39.4 °F 63% 30.21 in 10.0 mi NW 11.5 mph - N/A   Unknown
2:55 AM 50.9 °F - 38.8 °F 63% 30.22 in 10.0 mi NW 11.5 mph - N/A   Unknown
3:15 AM 50.9 °F - 38.5 °F 62% 30.22 in 10.0 mi NW 12.7 mph - N/A   Unknown
3:35 AM 50.0 °F - 38.8 °F 66% 30.23 in 10.0 mi NNW 12.7 mph - N/A   Unknown
3:55 AM 49.5 °F - 38.5 °F 66% 30.23 in 10.0 mi NNW 9.2 mph - N/A   Unknown
4:15 AM 49.5 °F - 37.0 °F 62% 30.24 in 10.0 mi NNW 13.8 mph 17.3 mph N/A   Unknown
4:35 AM 50.0 °F - 34.9 °F 56% 30.25 in 10.0 mi NNW 15.0 mph 21.9 mph N/A   Unknown
4:55 AM 49.3 °F - 34.5 °F 57% 30.27 in 10.0 mi NNW 17.3 mph 20.7 mph N/A   Unknown
5:15 AM 49.1 °F - 34.0 °F 56% 30.28 in 10.0 mi NNW 15.0 mph 19.6 mph N/A   Unknown
5:35 AM 48.6 °F - 33.8 °F 57% 30.29 in 10.0 mi NNW 15.0 mph - N/A   Unknown
5:55 AM 48.0 °F - 32.5 °F 55% 30.29 in 10.0 mi NNW 15.0 mph - N/A   Unknown
6:15 AM 47.3 °F - 32.0 °F 55% 30.30 in 10.0 mi NNW 13.8 mph 20.7 mph N/A   Unknown
6:35 AM 46.8 °F - 32.0 °F 57% 30.30 in 10.0 mi NNW 11.5 mph 19.6 mph N/A   Unknown
6:55 AM 46.9 °F - 33.1 °F 59% 30.31 in 10.0 mi NNW 11.5 mph - N/A   Unknown
7:15 AM 48.4 °F - 33.4 °F 56% 30.31 in 10.0 mi NNW 12.7 mph 17.3 mph N/A   Unknown
7:35 AM 49.8 °F - 33.1 °F 53% 30.32 in 10.0 mi NNW 11.5 mph 17.3 mph N/A   Unknown
7:55 AM 50.9 °F - 32.2 °F 49% 30.32 in 10.0 mi NNW 18.4 mph 21.9 mph N/A   Unknown
8:15 AM 51.6 °F - 31.8 °F 47% 30.32 in 10.0 mi NNW 18.4 mph 24.2 mph N/A   Unknown
8:35 AM 52.7 °F - 31.6 °F 45% 30.33 in 10.0 mi NNW 16.1 mph 20.7 mph N/A   Unknown
8:55 AM 53.8 °F - 32.0 °F 44% 30.33 in 10.0 mi NNW 16.1 mph 21.9 mph N/A   Unknown
9:15 AM 54.0 °F - 30.7 °F 41% 30.33 in 10.0 mi North 17.3 mph - N/A   Unknown
9:35 AM 55.4 °F - 31.8 °F 41% 30.33 in 10.0 mi North 13.8 mph - N/A   Unknown
9:55 AM 55.2 °F - 30.2 °F 38% 30.33 in 10.0 mi NNW 15.0 mph - N/A   Unknown
10:15 AM 55.9 °F - 30.9 °F 39% 30.33 in 10.0 mi NNW 15.0 mph 20.7 mph N/A   Unknown
10:35 AM 56.5 °F - 31.1 °F 38% 30.33 in 10.0 mi NNW 11.5 mph - N/A   Unknown
10:55 AM 57.4 °F - 31.6 °F 38% 30.33 in 10.0 mi North 13.8 mph 24.2 mph N/A   Unknown
11:15 AM 57.9 °F - 32.5 °F 38% 30.32 in 10.0 mi NNW 10.4 mph 19.6 mph N/A   Unknown
11:35 AM 59.0 °F - 30.7 °F 34% 30.32 in 10.0 mi NW 12.7 mph 16.1 mph N/A   Unknown
11:55 AM 59.4 °F - 30.2 °F 33% 30.30 in 10.0 mi NNW 12.7 mph - N/A   Unknown
12:15 PM 60.1 °F - 31.6 °F 34% 30.29 in 10.0 mi NNW 8.1 mph - N/A   Unknown
12:35 PM 60.8 °F - 32.0 °F 34% 30.27 in 10.0 mi NNW 9.2 mph - N/A   Unknown
12:55 PM 62.1 °F - 33.3 °F 34% 30.26 in 10.0 mi NNW 11.5 mph 16.1 mph N/A   Unknown
1:15 PM 62.8 °F - 32.4 °F 32% 30.26 in 10.0 mi NW 8.1 mph - N/A   Unknown
1:35 PM 63.5 °F - 31.8 °F 31% 30.24 in 10.0 mi NNW 10.4 mph 16.1 mph N/A   Unknown
1:55 PM 64.4 °F - 32.4 °F 30% 30.24 in 10.0 mi NW 9.2 mph - N/A   Unknown
2:15 PM 64.4 °F - 31.1 °F 29% 30.23 in 10.0 mi NW 10.4 mph - N/A   Unknown
2:35 PM 64.4 °F - 29.8 °F 27% 30.22 in 10.0 mi NW 12.7 mph 17.3 mph N/A   Unknown
2:55 PM 64.6 °F - 28.2 °F 25% 30.22 in 10.0 mi NNW 11.5 mph 18.4 mph N/A   Unknown
3:15 PM 64.9 °F - 29.3 °F 26% 30.22 in 10.0 mi WNW 6.9 mph - N/A   Unknown
3:35 PM 64.6 °F - 28.8 °F 26% 30.22 in 10.0 mi WNW 9.2 mph 16.1 mph N/A   Unknown
3:55 PM 65.1 °F - 30.6 °F 27% 30.21 in 10.0 mi NW 9.2 mph - N/A   Unknown
4:15 PM 64.4 °F - 29.7 °F 27% 30.21 in 10.0 mi NW 9.2 mph - N/A   Unknown
4:35 PM 64.2 °F - 30.4 °F 28% 30.21 in 10.0 mi NW 9.2 mph - N/A   Unknown
4:55 PM 63.5 °F - 30.9 °F 29% 30.22 in 10.0 mi NW 6.9 mph - N/A   Unknown
5:15 PM 62.2 °F - 30.6 °F 30% 30.22 in 10.0 mi NW 8.1 mph - N/A   Unknown
5:35 PM 60.1 °F - 32.0 °F 35% 30.22 in 10.0 mi NW 5.8 mph - N/A   Unknown
5:55 PM 60.1 °F - 29.3 °F 31% 30.23 in 10.0 mi NW 3.5 mph - N/A   Unknown
6:15 PM 58.3 °F - 30.9 °F 35% 30.23 in 10.0 mi Calm Calm - N/A   Unknown
6:35 PM 53.4 °F - 39.2 °F 59% 30.23 in 10.0 mi Calm Calm - N/A   Unknown
6:55 PM 52.7 °F - 36.7 °F 55% 30.24 in 10.0 mi Calm Calm - N/A   Unknown
7:15 PM 51.4 °F - 40.5 °F 66% 30.24 in 10.0 mi Calm Calm - N/A   Unknown
7:35 PM 50.0 °F - 41.4 °F 72% 30.25 in 10.0 mi Calm Calm - N/A   Unknown
7:55 PM 48.2 °F - 41.9 °F 79% 30.25 in 10.0 mi Calm Calm - N/A   Unknown
8:35 PM 48.0 °F - 40.8 °F 76% 30.26 in 10.0 mi Calm Calm - N/A   Unknown
8:55 PM 48.0 °F - 38.7 °F 70% 30.27 in 10.0 mi West 4.6 mph - N/A   Unknown
9:15 PM 48.2 °F - 37.2 °F 66% 30.28 in 10.0 mi WNW 5.8 mph - N/A   Unknown
9:35 PM 50.5 °F - 35.1 °F 55% 30.27 in 10.0 mi WNW 4.6 mph - N/A   Unknown
9:55 PM 48.2 °F - 34.5 °F 59% 30.27 in 10.0 mi NW 8.1 mph - N/A   Unknown
10:15 PM 49.8 °F - 35.8 °F 59% 30.28 in 10.0 mi NW 9.2 mph - N/A   Unknown
10:35 PM 50.4 °F - 37.4 °F 61% 30.26 in 10.0 mi NNW 10.4 mph - N/A   Unknown
10:55 PM 50.2 °F - 39.0 °F 66% 30.26 in 10.0 mi NNW 6.9 mph - N/A   Unknown
11:15 PM 46.4 °F 42.4 °F 39.0 °F 75% 30.27 in 10.0 mi NNW 8.1 mph - N/A   Unknown
11:35 PM 46.4 °F 41.5 °F 41.0 °F 81% 30.26 in 10.0 mi North 10.4 mph - N/A   Unknown
11:55 PM 49.1 °F - 42.8 °F 79% 30.26 in 10.0 mi North 6.9 mph - N/A   Unknown